890  
ASUS44 KMEG 080910  
RWRMEG  
MEMPHIS CWA HOURLY WEATHER ROUNDUP  
NATIONAL WEATHER SERVICE MEMPHIS TN  
300 AM CST THU DEC 08 2022  
   
..WEST TENNESSEE
 
 
 
CITY SKY/WX TMP DP RH WIND PRES REMARKS
 
MEMPHIS INTL FOG 61 61 100 E3 30.15F VSB 1/2  
NWS MEMPHIS N/A 60 N/A N/A MISG N/A  
FRAYSER CLOUDY 59 59 100 CALM 30.14S FOG  
JACKSON CLOUDY 59 59 100 E5 30.17F FOG  
SOMERVILLE FOG 61 61 100 CALM 30.15S VSB 1/2  
BOLIVAR FOG 63 61 94 E3 30.15F VSB 1/4  
SELMER FOG 63 63 100 CALM 30.17F VSB 1/2  
SAVANNAH CLOUDY 64 64 100 CALM 30.17R  
DYERSBURG RAIN 53 32 44 MISG N/A  
UNION CITY CLOUDY 50 50 100 NE9 30.19S FOG  
PARIS CLOUDY 52 52 100 NE10 30.18F FOG  
HUNTINGDON CLOUDY 54 54 100 E8 30.17F FOG  
 
   
..EASTERN ARKANSAS
 
 
 
CITY SKY/WX TMP DP RH WIND PRES REMARKS
 
JONESBORO CLOUDY 51 51 100 NE12 30.20R  
WEST MEMPHIS FOG 59 57 93 MISG 30.15S VSB 1/4  
BATESVILLE LGT RAIN 51 51 100 CALM 30.23S FOG  
NEWPORT CLOUDY 51 50 96 N14 30.21R  
WALNUT RIDGE HVY RAIN 50 50 100 N8 30.23R FOG  
BLYTHEVILLE LGT RAIN 52 51 97 NE13G18 30.18S  
SEARCY LGT RAIN 53 53 100 NE8 30.19F FOG  
STUTTGART FOG 58 58 100 N6 30.17S VSB 1/4  
PINE BLUFF FOG 62 60 93 N3 30.16S VSB 1/4  
MONTICELLO CLEAR 69 67 93 SW12 30.16S  
 
   
..NORTH MISSISSIPPI
 
 
 
CITY SKY/WX TMP DP RH WIND PRES REMARKS
 
TUPELO LGT RAIN 65 63 93 S6 30.18F VSB 1/2  
OXFORD CLOUDY 64 64 100 SE6 30.18F FOG  
BATESVILLE N/A 66 66 100 S3 30.15F  
OLIVE BRANCH FOG 61 61 100 CALM 30.15S VSB 0  
TUNICA FOG 62 62 100 CALM 30.15F VSB 1/4  
CLARKSDALE CLOUDY 66 66 100 S3 30.16S FOG  
CORINTH FOG 66 66 100 SE7 30.16F VSB 1/4  
IUKA CLOUDY 65 65 100 SE3 30.19S  
GREENWOOD CLOUDY 70 65 84 SW9 30.18S  
COLUMBUS FOG 56 55 99 CALM 30.17S VSB 3/8  
STARKVILLE PTCLDY 64 64 100 S3 30.18F  
GOLDEN TRIANGL CLEAR 62 62 100 S8 30.20F  
 
   
..SOUTHEAST MISSOURI
 
 
 
CITY SKY/WX TMP DP RH WIND PRES REMARKS
 
KENNETT HVY RAIN 50 50 100 NE14 30.20R  
MALDEN RAIN 50 48 93 NE9 30.23S  
WEST PLAINS LGT RAIN 49 47 93 NE6 30.22S  
POPLAR BLUFF LGT RAIN 48 47 96 N9 30.22R FOG  
CAPE GIRARDEAU LGT RAIN 48 46 93 NE10 30.23F FOG  
 
   
..NORTHWEST ALABAMA
 
 
 
CITY SKY/WX TMP DP RH WIND PRES REMARKS
 
MUSCLE SHOALS FOG 65 64 97 SE5 30.19S VSB 1/2  
 
   
..MIDDLE TENNESSEE
 
 
 
CITY SKY/WX TMP DP RH WIND PRES REMARKS
 
NASHVILLE CLOUDY 56 53 90 N5 30.25F FOG  
DICKSON FOG 54 54 100 NE9 30.20F VSB 1/4  
COLUMBIA FOG 59 59 100 NE8 30.17F VSB 1/4  
LAWRENCEBURG FOG 63 63 100 SE6 30.18F VSB 0  
LEWISBURG FOG 59 59 100 NE3 30.19F VSB 1/4  
 
   
..WESTERN KENTUCKY
 
 
 
CITY SKY/WX TMP DP RH WIND PRES REMARKS
 
PADUCAH RAIN 48 46 93 E7 30.22F FOG  
FORT CAMPBELL DRIZZLE 50 50 99 NE7 30.22F FOG  
 
   
..CENTRAL ARKANSAS
 
 
 
CITY SKY/WX TMP DP RH WIND PRES REMARKS
 
LITTLE ROCK FOG 57 55 93 NE5 30.17S VSB 1/16  
 
SKY/WX REPORTED AS FAIR MEANS FEW OR NO CLOUDS BELOW  
12 THOUSAND FEET.  
 
 
 
CLICK HERE TO GO TO PREVIOUS BULLETINS.

The Nexlab TN Page
The Nexlab MS Page
The Nexlab AR Page Main Text Page